User: anonymous   Login
Location: Kalberh�ni
(46.4610°N, 7.2453°E)
Time: 12:29:28
(UTC+00:00)
Language:

EO 1 Del DPAF - Orbit

View from above orbital plane
View from above orbital plane
View from above satellite
View from above satellite

Ground track
Ground track

The orbit data is extracted from the following two-line orbital elements,

1 26623U 00075E   21265.71717399  .00008026  00000-0  37249-3 0  9995
2 26623  97.9960 190.9917 0004164  87.1523 273.0187 15.20323831131931
Epoch (UTC): 22 September 2021 17:12:43
Eccentricity: 0.0004164
inclination: 97.9960°
perigee height: 502 km
apogee height: 508 km
right ascension of ascending node: 190.9917°
argument of perigee: 87.1523°
revolutions per day: 15.20323831
mean anomaly at epoch: 273.0187°
orbit number at epoch: 13193

The dashed part of the orbit path shows where the satellite is in the earth's shadow,  

DLR